Terminal Aerodrome Forecast
Issued by NWS Mt. Holly, NJ

Current Version | Previous Version | Text Only | Print | Product List | Glossary On
Versions: 1 2 3 4 5 6 7 8 9 10 11 12 13 14
000
FTUS41 KPHI 012336
TAFTTN
TAF
KTTN 012336Z 0200/0224 13007KT P6SM SCT050
     FM020800 VRB03KT 4SM BR SCT250
      TEMPO 0210/0212 2SM BR
     FM021400 24005KT P6SM SCT050=

USA.gov is the U.S. government's official web portal to all federal, state and local government web resources and services.